Torna al catalogo

COSMOS 1275 DEB

AttivoPO
NORAD 13809·DEBRIS·🇷🇺 Russia

Lanciato Jun 4, 1981 da Plesetsk Cosmodrome

Loading…

Prossimi Passaggi (prossime 24 ore)

TLE

AggiornatoSource: Space-Track

Epoca: Sep 14, 2026, 04:38 UTC

1 13809U 81053HD  26257.19372907  .00155641  00000-0  28081-2 0  9991
2 13809  82.7817 254.9468 0011822 154.2298 205.9545 15.49111507289518

Traccia COSMOS 1275 DEB in tempo reale con AllMySat

Download on the App Store